Regional Weather Roundup
Issued by NWS Little Rock, AR

Home | Current Version | Previous Version | Graphics & Text | Print | Product List | Glossary Off
Versions: 1 2 3 4 5 6 7 8 9 10 11 12 13 14 15 16 17 18 19 20 21 22 23 24 25 26 27 28 29 30 31 32 33 34 35 36 37 38 39 40 41

000
ASUS44 KLZK 281205
RWRLZK

WEATHER ROUNDUP FOR ARKANSAS
NATIONAL WEATHER SERVICE LITTLE ROCK AR
600 AM CST SUN DEC 28 2014

NOTE: "FAIR" INDICATES FEW OR NO CLOUDS BELOW 12,000 FEET WITH NO
SIGNIFICANT WEATHER AND/OR OBSTRUCTIONS TO VISIBILITY.

ARZ001-003-010-029-281300-
NORTHWEST ARKANSAS

CITY           SKY/WX    TMP DP  RH WIND       PRES   REMARKS
FAYETTEVILLE   CLOUDY    28  25  88 CALM      30.22R
6HR MIN TEMP:  27; 6HR MAX TEMP:  29;

FORT SMITH     CLOUDY    32  27  81 W8        30.26R WCI  25
6HR MIN TEMP:  32; 6HR MAX TEMP:  33;

HARRISON       CLOUDY    28  24  85 NW3       30.19R
6HR MIN TEMP:  28; 6HR MAX TEMP:  30;

BENTONVILLE    CLOUDY    27  21  80 N3        30.22R
6HR MIN TEMP:  27; 6HR MAX TEMP:  28;

ROGERS         CLOUDY    25  24  96 CALM      30.22R
6HR MIN TEMP:  25; 6HR MAX TEMP:  26;

SILOAM SPGS    CLOUDY    27  19  74 CALM      30.23R
6HR MIN TEMP:  27; 6HR MAX TEMP:  27;

HIGHFILL       CLOUDY    27  23  85 N6        30.21R WCI  20
6HR MIN TEMP:  27; 6HR MAX TEMP:  28;

SPRINGDALE     CLEAR     28  25  86 N5        30.23  WCI  23
$$

ARZ004-005-016-281300-
NORTH CENTRAL ARKANSAS

CITY           SKY/WX    TMP DP  RH WIND       PRES   REMARKS
BATESVILLE     CLOUDY    34  27  75 NW5       30.22R WCI  30
6HR MIN TEMP:  34; 6HR MAX TEMP:  37;

FLIPPIN        CLOUDY    30  23  74 W5        30.21R WCI  25
6HR MIN TEMP:  30; 6HR MAX TEMP:  34;

MTN HOME       CLOUDY    30  26  85 CALM      30.20R
6HR MIN TEMP:  30; 6HR MAX TEMP:  32;

$$

ARZ040-041-281300-
WEST CENTRAL ARKANSAS

CITY           SKY/WX    TMP DP  RH WIND       PRES   REMARKS
MENA           CLOUDY    34  30  86 CALM      30.22R
MOUNT IDA      CLOUDY    33  29  85 N3        30.20R
6HR MIN TEMP:  33; 6HR MAX TEMP:  36;

$$

ARZ009-017-025-026-028-281300-
NORTHEAST ARKANSAS

CITY           SKY/WX    TMP DP  RH WIND       PRES   REMARKS
CORNING        CLOUDY    36  32  87 N12       30.22R
JONESBORO      CLOUDY    38  35  89 N6        30.19R
6HR MIN TEMP:  38; 6HR MAX TEMP:  41;

NEWPORT        CLOUDY    37  33  85 NW10      30.23R
6HR MIN TEMP:  37; 6HR MAX TEMP:  40;

WALNUT RIDGE   CLOUDY    36  28  75 N13       30.21R
6HR MIN TEMP:  36; 6HR MAX TEMP:  39;

BLYTHEVILLE    CLOUDY    38  36  92 NE10      30.19F
6HR MIN TEMP:  38; 6HR MAX TEMP:  42; 6HR PCP: TRACE;

$$

ARZ022-023-033-042-044-281300-
CENTRAL ARKANSAS

CITY           SKY/WX    TMP DP  RH WIND       PRES   REMARKS
LITTLE ROCK    CLOUDY    39  31  72 N10       30.25R
6HR MIN TEMP:  39; 6HR MAX TEMP:  41;

N LITTLE ROCK    N/A     37  34  89 N5        30.25R
6HR MIN TEMP:  37; 6HR MAX TEMP:  39;

JACKSONVILLE   CLOUDY    38  33  83 NW8       30.24R
6HR MIN TEMP:  38; 6HR MAX TEMP:  40;

SEARCY         CLOUDY    37  32  82 N9        30.26R
6HR MIN TEMP:  37; 6HR MAX TEMP:  40;

HOT SPRINGS    CLOUDY    38  35  89 CALM      30.23R
6HR MIN TEMP:  38; 6HR MAX TEMP:  41;

RUSSELLVILLE   CLOUDY    36  30  79 NW3       30.24R
6HR MIN TEMP:  36; 6HR MAX TEMP:  39;

CLINTON        FAIR      32  27  80 CALM      30.26R
$$

ARZ036-281300-
EAST ARKANSAS

CITY           SKY/WX    TMP DP  RH WIND       PRES   REMARKS
WEST MEMPHIS   CLOUDY    39  38  96 N12       30.17F
6HR MIN TEMP:  39; 6HR MAX TEMP:  45; 6HR PCP:  0.01;

$$

ARZ050-053-066-070-073-281300-
SOUTHWEST ARKANSAS

CITY           SKY/WX    TMP DP  RH WIND       PRES   REMARKS
ARKADELPHIA    CLOUDY    41  41 100 N5        30.25R
6HR MIN TEMP:  41; 6HR MAX TEMP:  42;

CAMDEN         LGT RAIN  41  37  87 MISG      30.22S
TEXARKANA      CLOUDY    39  36  89 NW5       30.22F
6HR MIN TEMP:  38; 6HR MAX TEMP:  40;

EL DORADO      LGT RAIN  42  41  96 N6        30.20S
6HR MIN TEMP:  41; 6HR MAX TEMP:  46; 6HR PCP:  0.04;

DE QUEEN       CLOUDY    36  34  92 W3        30.23R
6HR MIN TEMP:  36; 6HR MAX TEMP:  38;

$$

ARZ056-057-069-281300-
SOUTHEAST ARKANSAS

CITY           SKY/WX    TMP DP  RH WIND       PRES   REMARKS
PINE BLUFF     LGT RAIN  40  35  83 N7        30.22R
6HR MIN TEMP:  39; 6HR MAX TEMP:  42; 6HR PCP: TRACE;

STUTTGART      CLOUDY    39  34  81 N7        30.22R
6HR MIN TEMP:  39; 6HR MAX TEMP:  43;

MONTICELLO     LGT RAIN  41  39  93 VRB5      30.19S
6HR MIN TEMP:  41; 6HR MAX TEMP:  47; 6HR PCP:  0.04;


$$





USA.gov is the U.S. government's official web portal to all federal, state and local government web resources and services.